カタログに戻る

COSMOS 2291

運用中軍事GEO
NORAD 23267·PAYLOAD·🇷🇺 Russia

打ち上げ Sep 21, 1994 から Baikonur Cosmodrome

Loading…

TLE

最新Source: Space-Track

元期: Sep 10, 2026, 22:41 UTC

1 23267U 94060A   26253.94547127 -.00000082  00000-0  00000-0 0  9997
2 23267  14.1236 348.9769 0007628 228.5426 107.2602  1.00286594117054

AllMySatでCOSMOS 2291をリアルタイム追跡

Download on the App Store